Flag Weather past 2 weeks in Bloomington, Indiana, U.S.A.

Now
35 °F

Clear.


Feels Like: 29 °F
Forecast: 36 / 53 °F
Wind: 8 mph from South

Location: Monroe County Airport

Current Time: Nov 28, 2014 at 7:28:39 PM

Latest Report: Nov 28, 2014 at 6:53 PM


Visibility: 10 mi

Pressure: 30.11 "Hg

Humidity: 67%

Dew point: 25 °F

Location of BloomingtonLocation

Historic Weather in Bloomington — Graph

°F

Bloomington temperature yesterday

Maximum temperature yesterday: 30 °F (at 12:53 AM)
Minimum temperature yesterday: 22 °F (at 10:53 PM)
Average temperature yesterday: 27 °F

Past Weeks' High & Low Weather Summary

 TemperatureHumidityPressure
High59 °F (Nov 24, 4:53 AM)100% (Nov 16, 4:53 PM)30.53 "Hg (Nov 16, 4:53 PM)
Low11 °F (Nov 18, 6:53 AM)30% (Nov 21, 3:53 PM)29.19 "Hg (Nov 23, 10:53 PM)
Average31 °F74%30.12 "Hg
* Reported Nov 13 5:53 PM — Nov 28 5:53 PM, Bloomington, Weather by CustomWeather, © 2014

Note: Actual official high and low records may vary slightly from our data, if they occured in-between our weather recording intervals... More about our weather records

Advertising

Bloomington weather history for previous 24 hours

 ConditionsComfort  
Time TempWeatherWind HumidityBarometerVisibility
5:53 PM
Nov 28
35 °FClear.12 mph64%30.11 "Hg10 mi
4:53 PM37 °FSunny.9 mph60%30.13 "Hg10 mi
3:53 PM37 °FSunny.12 mph60%30.14 "Hg10 mi
2:53 PM36 °FSunny.15 mph59%30.17 "Hg10 mi
1:53 PM35 °FSunny.9 mph64%30.23 "Hg10 mi
12:53 PM31 °FOvercast.10 mph67%30.27 "Hg10 mi
11:53 AM28 °FOvercast.9 mph72%30.33 "Hg10 mi
10:53 AM27 °FOvercast.6 mph75%30.36 "Hg10 mi
9:53 AM25 °FOvercast.5 mph78%30.38 "Hg10 mi
8:53 AM23 °FMostly cloudy.7 mph85%30.38 "Hg10 mi
7:53 AM22 °FOvercast.7 mph85%30.40 "Hg10 mi
6:53 AM21 °FOvercast.5 mph88%30.41 "Hg8 mi
5:53 AM21 °FOvercast.No wind88%30.41 "Hg7 mi
4:53 AM20 °FOvercast.No wind89%30.42 "Hg9 mi
3:53 AM20 °FPassing clouds.3 mph89%30.44 "Hg8 mi
2:53 AM18 °FClear.3 mph88%30.42 "Hg7 mi
1:53 AM16 °FIce fog.5 mph92%30.43 "Hg6 mi
12:53 AM19 °FIce fog.No wind92%30.43 "Hg6 mi
11:53 PM
Nov 27
22 °FPassing clouds.7 mph85%30.45 "Hg8 mi
10:53 PM22 °FPassing clouds.6 mph89%30.44 "Hg8 mi
10:00 PM25 °FPassing clouds.5 mph81%30.41 "Hg9 mi
9:53 PM24 °FPartly cloudy.7 mph84%30.44 "Hg8 mi
8:53 PM26 °FOvercast.8 mph77%30.44 "Hg8 mi
7:53 PM27 °FLight snow. Mostly cloudy.9 mph81%30.44 "Hg5 mi
Weather by CustomWeather, © 2014

See weather overviewHow to use our weather pages